Time,TemperatureF,DewpointF,PressureIn,WindDirection,WindDirectionDegrees,WindSpeedMPH,WindSpeedGustMPH,Humidity,HourlyPrecipIn,Conditions,Clouds,dailyrainin,SolarRadiationWatts/m^2,SoftwareType,DateUTC
2013-06-12 00:02:00,60.0,11.0,-100.00,ENE,78,3.0,5.0,14,0.00,,,0.00,0.000000,,2013-06-12 07:02:00,
2013-06-12 00:33:00,60.0,14.0,-100.00,East,85,2.0,4.0,16,0.00,,,0.00,0.000000,,2013-06-12 07:33:00,
2013-06-12 00:43:00,60.0,14.0,-100.00,East,85,2.0,4.0,16,0.00,,,0.00,0.000000,,2013-06-12 07:43:00,
2013-06-12 00:53:00,60.0,14.0,-100.00,East,85,2.0,4.0,16,0.00,,,0.00,0.000000,,2013-06-12 07:53:00,
2013-06-12 01:02:00,60.0,14.0,-100.00,East,85,2.0,4.0,16,0.00,,,0.00,0.000000,,2013-06-12 08:02:00,
2013-06-12 01:33:00,59.0,16.0,-100.00,East,87,3.0,5.0,18,0.00,,,0.00,0.000000,,2013-06-12 08:33:00,
2013-06-12 01:43:00,59.0,16.0,-100.00,East,87,3.0,5.0,18,0.00,,,0.00,0.000000,,2013-06-12 08:43:00,
2013-06-12 01:53:00,59.0,16.0,-100.00,East,87,3.0,5.0,18,0.00,,,0.00,0.000000,,2013-06-12 08:53:00,
2013-06-12 02:01:00,59.0,16.0,-100.00,East,87,3.0,5.0,18,0.00,,,0.00,0.000000,,2013-06-12 09:01:00,
2013-06-12 02:33:00,59.0,17.0,-100.00,ENE,62,3.0,5.0,19,0.00,,,0.00,0.000000,,2013-06-12 09:33:00,
2013-06-12 02:43:00,59.0,17.0,-100.00,ENE,62,3.0,5.0,19,0.00,,,0.00,0.000000,,2013-06-12 09:43:00,
2013-06-12 02:53:00,59.0,17.0,-100.00,ENE,62,3.0,5.0,19,0.00,,,0.00,0.000000,,2013-06-12 09:53:00,
2013-06-12 03:01:00,59.0,17.0,-100.00,ENE,62,3.0,5.0,19,0.00,,,0.00,0.000000,,2013-06-12 10:01:00,
2013-06-12 03:33:00,59.0,16.0,-100.00,East,82,3.0,5.0,18,0.00,,,0.00,0.000000,,2013-06-12 10:33:00,
2013-06-12 03:43:00,59.0,16.0,-100.00,East,82,3.0,5.0,18,0.00,,,0.00,0.000000,,2013-06-12 10:43:00,
2013-06-12 04:02:00,59.0,16.0,-100.00,East,82,3.0,5.0,18,0.00,,,0.00,0.000000,,2013-06-12 11:02:00,
2013-06-12 04:33:00,57.0,15.0,-100.00,ENE,73,3.0,5.0,19,0.00,,,0.00,0.000000,,2013-06-12 11:33:00,
2013-06-12 04:43:00,57.0,15.0,-100.00,ENE,73,3.0,5.0,19,0.00,,,0.00,0.000000,,2013-06-12 11:43:00,
2013-06-12 04:53:00,57.0,15.0,-100.00,ENE,73,3.0,5.0,19,0.00,,,0.00,0.000000,,2013-06-12 11:53:00,
2013-06-12 05:01:00,57.0,15.0,-100.00,ENE,73,3.0,5.0,19,0.00,,,0.00,0.000000,,2013-06-12 12:01:00,
2013-06-12 05:33:00,58.0,16.0,-100.00,East,81,3.0,5.0,19,0.00,,,0.00,3.000000,,2013-06-12 12:33:00,
2013-06-12 05:43:00,58.0,16.0,-100.00,East,81,3.0,5.0,19,0.00,,,0.00,3.000000,,2013-06-12 12:43:00,
2013-06-12 05:53:00,58.0,16.0,-100.00,East,81,3.0,5.0,19,0.00,,,0.00,3.000000,,2013-06-12 12:53:00,
2013-06-12 06:01:00,58.0,16.0,-100.00,East,81,3.0,5.0,19,0.00,,,0.00,3.000000,,2013-06-12 13:01:00,
2013-06-12 06:33:00,61.0,16.0,-100.00,ESE,115,1.0,4.0,17,0.00,,,-99.99,25.000000,,2013-06-12 13:33:00,
2013-06-12 06:43:00,61.0,16.0,-100.00,ESE,115,1.0,4.0,17,0.00,,,-99.99,25.000000,,2013-06-12 13:43:00,
2013-06-12 07:02:00,61.0,16.0,-100.00,ESE,115,1.0,4.0,17,0.00,,,-99.99,25.000000,,2013-06-12 14:02:00,
2013-06-12 07:33:00,65.0,19.0,-100.00,East,80,0.0,3.0,17,0.00,,,0.00,138.000000,,2013-06-12 14:33:00,
2013-06-12 07:43:00,65.0,19.0,-100.00,East,80,0.0,3.0,17,0.00,,,0.00,138.000000,,2013-06-12 14:43:00,
2013-06-12 07:53:00,65.0,19.0,-100.00,East,80,0.0,3.0,17,0.00,,,0.00,138.000000,,2013-06-12 14:53:00,
2013-06-12 08:01:00,65.0,19.0,-100.00,East,80,0.0,3.0,17,0.00,,,0.00,138.000000,,2013-06-12 15:01:00,
2013-06-12 08:33:00,72.0,20.0,-100.00,SW,230,2.0,4.0,14,0.00,,,-99.99,391.000000,,2013-06-12 15:33:00,
2013-06-12 08:43:00,72.0,20.0,-100.00,SW,230,2.0,4.0,14,0.00,,,-99.99,391.000000,,2013-06-12 15:43:00,
2013-06-12 08:52:00,72.0,20.0,-100.00,SW,230,2.0,4.0,14,0.00,,,-99.99,391.000000,,2013-06-12 15:52:00,
2013-06-12 09:01:00,72.0,20.0,-100.00,SW,230,2.0,4.0,14,0.00,,,-99.99,391.000000,,2013-06-12 16:01:00,
2013-06-12 09:33:00,77.0,16.0,-100.00,South,188,4.0,8.0,10,0.00,,,0.00,695.000000,,2013-06-12 16:33:00,
2013-06-12 09:43:00,77.0,16.0,-100.00,South,188,4.0,8.0,10,0.00,,,0.00,695.000000,,2013-06-12 16:43:00,
2013-06-12 09:52:00,77.0,16.0,-100.00,South,188,4.0,8.0,10,0.00,,,0.00,695.000000,,2013-06-12 16:52:00,
2013-06-12 10:01:00,77.0,16.0,-100.00,South,188,4.0,8.0,10,0.00,,,0.00,695.000000,,2013-06-12 17:01:00,
2013-06-12 10:33:00,79.0,18.0,-100.00,SW,220,4.0,11.0,10,0.00,,,0.00,809.000000,,2013-06-12 17:33:00,
2013-06-12 10:42:00,79.0,18.0,-100.00,SW,220,4.0,11.0,10,0.00,,,0.00,809.000000,,2013-06-12 17:42:00,
2013-06-12 10:52:00,79.0,18.0,-100.00,SW,220,4.0,11.0,10,0.00,,,0.00,809.000000,,2013-06-12 17:52:00,
2013-06-12 11:02:00,79.0,18.0,-100.00,SW,220,4.0,11.0,10,0.00,,,0.00,809.000000,,2013-06-12 18:02:00,
2013-06-12 11:33:00,78.0,17.0,-100.00,SW,231,6.0,13.0,10,0.00,,,0.00,885.000000,,2013-06-12 18:33:00,
2013-06-12 11:43:00,78.0,17.0,-100.00,SW,231,6.0,13.0,10,0.00,,,0.00,885.000000,,2013-06-12 18:43:00,
2013-06-12 11:53:00,78.0,17.0,-100.00,SW,231,6.0,13.0,10,0.00,,,0.00,885.000000,,2013-06-12 18:53:00,
2013-06-12 12:01:00,78.0,17.0,-100.00,SW,231,6.0,13.0,10,0.00,,,0.00,885.000000,,2013-06-12 19:01:00,
2013-06-12 12:32:00,76.0,18.0,-100.00,West,261,6.0,15.0,11,0.00,,,0.00,475.000000,,2013-06-12 19:32:00,
2013-06-12 12:43:00,76.0,18.0,-100.00,West,261,6.0,15.0,11,0.00,,,0.00,475.000000,,2013-06-12 19:43:00,
2013-06-12 12:52:00,76.0,18.0,-100.00,West,261,6.0,15.0,11,0.00,,,0.00,475.000000,,2013-06-12 19:52:00,
2013-06-12 13:01:00,76.0,18.0,-100.00,West,261,6.0,15.0,11,0.00,,,0.00,475.000000,,2013-06-12 20:01:00,
2013-06-12 13:33:00,76.0,18.0,-100.00,SSW,209,4.0,14.0,11,0.00,,,0.00,531.000000,,2013-06-12 20:33:00,
2013-06-12 13:43:00,76.0,18.0,-100.00,SSW,209,4.0,14.0,11,0.00,,,0.00,531.000000,,2013-06-12 20:43:00,
2013-06-12 13:54:00,76.0,18.0,-100.00,SSW,209,4.0,14.0,11,0.00,,,0.00,531.000000,,2013-06-12 20:54:00,
2013-06-12 14:01:00,76.0,18.0,-100.00,SSW,209,4.0,14.0,11,0.00,,,0.00,531.000000,,2013-06-12 21:01:00,
2013-06-12 14:33:00,77.0,18.0,-100.00,South,180,3.0,11.0,11,0.00,,,0.00,356.000000,,2013-06-12 21:33:00,
2013-06-12 14:43:00,77.0,18.0,-100.00,South,180,3.0,11.0,11,0.00,,,0.00,356.000000,,2013-06-12 21:43:00,
2013-06-12 14:53:00,77.0,18.0,-100.00,South,180,3.0,11.0,11,0.00,,,0.00,356.000000,,2013-06-12 21:53:00,
2013-06-12 15:01:00,77.0,18.0,-100.00,South,180,3.0,11.0,11,0.00,,,0.00,356.000000,,2013-06-12 22:01:00,
2013-06-12 15:33:00,77.0,18.0,-100.00,SE,146,3.0,9.0,11,0.00,,,0.00,246.000000,,2013-06-12 22:33:00,
2013-06-12 15:43:00,77.0,18.0,-100.00,SE,146,3.0,9.0,11,0.00,,,0.00,246.000000,,2013-06-12 22:43:00,
2013-06-12 15:52:00,77.0,18.0,-100.00,SE,146,3.0,9.0,11,0.00,,,0.00,246.000000,,2013-06-12 22:52:00,
2013-06-12 16:01:00,77.0,18.0,-100.00,SE,146,3.0,9.0,11,0.00,,,0.00,246.000000,,2013-06-12 23:01:00,
2013-06-12 16:32:00,75.0,23.0,-100.00,SE,146,4.0,11.0,14,0.00,,,0.00,179.000000,,2013-06-12 23:32:00,
2013-06-12 16:42:00,75.0,23.0,-100.00,SE,146,4.0,11.0,14,0.00,,,0.00,179.000000,,2013-06-12 23:42:00,
2013-06-12 16:53:00,75.0,23.0,-100.00,SE,146,4.0,11.0,14,0.00,,,0.00,179.000000,,2013-06-12 23:53:00,
2013-06-12 17:01:00,75.0,23.0,-100.00,SE,146,4.0,11.0,14,0.00,,,0.00,179.000000,,2013-06-13 00:01:00,
2013-06-12 17:33:00,73.0,26.0,-100.00,SSE,156,3.0,11.0,17,0.00,,,0.00,173.000000,,2013-06-13 00:33:00,
2013-06-12 17:43:00,73.0,26.0,-100.00,SSE,156,3.0,11.0,17,0.00,,,0.00,173.000000,,2013-06-13 00:43:00,
2013-06-12 17:52:00,73.0,26.0,-100.00,SSE,156,3.0,11.0,17,0.00,,,0.00,173.000000,,2013-06-13 00:52:00,
2013-06-12 18:01:00,73.0,26.0,-100.00,SSE,156,3.0,11.0,17,0.00,,,0.00,173.000000,,2013-06-13 01:01:00,
2013-06-12 18:33:00,71.0,28.0,-100.00,ESE,103,4.0,11.0,20,0.00,,,0.00,93.000000,,2013-06-13 01:33:00,
2013-06-12 18:43:00,71.0,28.0,-100.00,ESE,103,4.0,11.0,20,0.00,,,0.00,93.000000,,2013-06-13 01:43:00,
2013-06-12 18:53:00,71.0,28.0,-100.00,ESE,103,4.0,11.0,20,0.00,,,0.00,93.000000,,2013-06-13 01:53:00,
2013-06-12 19:01:00,71.0,28.0,-100.00,ESE,103,4.0,11.0,20,0.00,,,0.00,93.000000,,2013-06-13 02:01:00,
2013-06-12 19:33:00,68.0,32.0,-100.00,ESE,105,4.0,9.0,26,0.00,,,0.00,34.000000,,2013-06-13 02:33:00,
2013-06-12 19:43:00,68.0,32.0,-100.00,ESE,105,4.0,9.0,26,0.00,,,0.00,34.000000,,2013-06-13 02:43:00,
2013-06-12 19:52:00,68.0,32.0,-100.00,ESE,105,4.0,9.0,26,0.00,,,0.00,34.000000,,2013-06-13 02:52:00,
2013-06-12 20:02:00,68.0,32.0,-100.00,ESE,105,4.0,9.0,26,0.00,,,0.00,34.000000,,2013-06-13 03:02:00,
2013-06-12 20:33:00,66.0,33.0,-100.00,NNE,26,2.0,12.0,29,0.00,,,0.00,2.000000,,2013-06-13 03:33:00,
2013-06-12 20:43:00,66.0,33.0,-100.00,NNE,26,2.0,12.0,29,0.00,,,0.00,2.000000,,2013-06-13 03:43:00,
2013-06-12 20:52:00,66.0,33.0,-100.00,NNE,26,2.0,12.0,29,0.00,,,0.00,2.000000,,2013-06-13 03:52:00,
2013-06-12 21:01:00,66.0,33.0,-100.00,NNE,26,2.0,12.0,29,0.00,,,0.00,2.000000,,2013-06-13 04:01:00,
2013-06-12 22:33:00,50.0,46.0,-100.00,NE,51,4.0,10.0,86,-99.99,,,0.29,0.000000,,2013-06-13 05:33:00,
2013-06-12 22:43:00,50.0,46.0,-100.00,NE,51,4.0,10.0,86,-99.99,,,0.29,0.000000,,2013-06-13 05:43:00,
2013-06-12 22:53:00,50.0,46.0,-100.00,NE,51,4.0,10.0,86,-99.99,,,0.29,0.000000,,2013-06-13 05:53:00,
2013-06-12 23:02:00,50.0,46.0,-100.00,NE,51,4.0,10.0,86,-99.99,,,0.29,0.000000,,2013-06-13 06:02:00,
2013-06-12 23:33:00,54.0,40.0,-100.00,NE,46,3.0,7.0,59,-99.99,,,0.29,0.000000,,2013-06-13 06:33:00,
2013-06-12 23:44:00,54.0,40.0,-100.00,NE,46,3.0,7.0,59,-99.99,,,0.29,0.000000,,2013-06-13 06:44:00,
2013-06-12 23:52:00,54.0,40.0,-100.00,NE,46,3.0,7.0,59,-99.99,,,0.29,0.000000,,2013-06-13 06:52:00,